CDT,Max TemperatureF,Mean TemperatureF,Min TemperatureF,Max Dew PointF,MeanDew PointF,Min DewpointF,Max Humidity, Mean Humidity, Min Humidity, Max Sea Level PressureIn, Mean Sea Level PressureIn, Min Sea Level PressureIn, Max VisibilityMiles, Mean VisibilityMiles, Min VisibilityMiles, Max Wind SpeedMPH, Mean Wind SpeedMPH, Max Gust SpeedMPH,PrecipitationIn, CloudCover, Events, WindDirDegrees
2013-8-1,86,80,75,76,74,70,89,79,70,30.01,29.98,29.93,10,9,0,22,7,28,0.47,4,Fog-Rain-Thunderstorm,228
2013-8-2,88,80,74,77,75,72,94,81,66,30.04,29.98,29.92,10,10,10,12,4,,0.00,3,Rain,233
2013-8-3,88,82,77,78,75,73,90,76,65,30.07,30.03,29.98,10,10,10,17,8,,0.00,3,Rain-Thunderstorm,228
2013-8-4,93,85,77,78,74,70,87,71,49,30.07,30.03,29.97,10,10,10,20,7,28,0.00,1,Rain-Thunderstorm,305
2013-8-5,90,82,74,76,74,70,87,74,59,30.04,29.99,29.95,10,10,10,13,6,20,0.00,2,,301
2013-8-6,90,82,75,77,74,71,94,78,58,30.03,29.96,29.92,10,9,2,17,5,22,0.21,3,Rain-Thunderstorm,359
2013-8-7,90,80,72,77,74,70,91,77,59,30.00,29.95,29.92,10,9,2,17,6,26,0.04,2,Rain-Thunderstorm,61
2013-8-8,88,82,75,77,75,73,92,79,65,29.99,29.96,29.92,10,10,9,10,5,,0.00,2,Rain-Thunderstorm,63
2013-8-9,88,82,77,77,74,72,94,77,59,30.07,30.02,29.96,10,10,10,14,5,,0.00,2,Rain,89
2013-8-10,88,81,75,75,73,70,91,77,62,30.11,30.07,30.04,10,9,2,12,4,,0.17,3,Rain,37
2013-8-11,88,82,75,76,74,72,94,79,62,30.16,30.12,30.08,10,10,9,12,4,,0.00,1,Rain,72
2013-8-12,89,82,76,76,74,70,91,78,62,30.12,30.08,30.04,10,8,1,16,4,21,0.02,2,Rain-Thunderstorm,30
2013-8-13,85,81,76,78,73,70,90,81,70,30.06,30.01,29.95,10,9,1,18,5,28,0.24,3,Rain-Thunderstorm,306
2013-8-14,88,80,73,75,72,70,94,74,60,29.97,29.93,29.89,10,10,4,13,6,26,0.02,4,Rain-Thunderstorm,305
2013-8-15,87,80,73,73,72,68,94,77,58,29.98,29.94,29.91,10,9,1,13,5,18,0.00,4,Rain,290
2013-8-16,82,78,73,74,72,70,94,87,73,30.02,29.96,29.92,10,8,0,10,4,,1.30,7,Fog-Rain-Thunderstorm,62
2013-8-17,77,74,71,72,70,63,94,89,64,30.04,29.98,29.94,10,6,1,22,8,25,3.41,7,Rain,65
2013-8-18,83,77,71,75,71,70,94,87,70,30.06,30.02,29.99,10,9,1,20,9,24,0.40,4,Rain-Thunderstorm,77
2013-8-19,86,78,71,77,75,70,94,79,70,30.07,30.03,29.99,10,8,1,10,6,,0.00,3,Rain,129
2013-8-20,85,79,73,75,72,70,94,85,72,30.11,30.06,30.00,10,7,1,21,7,28,0.90,5,Rain-Thunderstorm,90
2013-8-21,88,80,72,75,71,68,91,78,62,30.15,30.09,30.06,10,10,10,13,6,,0.00,1,Rain-Thunderstorm,63
2013-8-22,85,78,71,74,72,69,90,74,66,30.11,30.04,29.98,10,10,10,14,6,20,0.00,2,Rain,96
2013-8-23,81,77,72,73,72,69,94,85,74,30.05,30.01,29.94,10,9,0,14,5,20,0.46,3,Fog-Rain-Thunderstorm,59
2013-8-24,83,78,73,74,72,70,92,80,69,30.14,30.09,30.01,10,10,10,10,4,23,0.00,3,Rain-Thunderstorm,15
2013-8-25,85,78,73,72,71,70,94,83,62,30.20,30.16,30.11,10,10,2,15,7,20,0.19,5,Rain,76
2013-8-26,87,78,71,69,65,62,78,62,47,30.21,30.15,30.10,10,10,10,14,7,21,0.00,3,,61
2013-8-27,85,76,66,69,65,61,88,64,48,30.12,30.07,30.03,10,10,10,9,6,,0.00,1,,109
2013-8-28,87,78,69,72,69,66,88,67,58,30.07,30.03,29.94,10,10,10,9,6,,0.00,1,Rain,340
2013-8-29,89,80,71,71,69,66,87,67,49,30.07,30.02,29.97,10,10,10,13,6,17,0.00,0,,309
2013-8-30,91,83,75,74,70,67,77,64,49,30.03,29.97,29.90,10,10,10,10,5,,0.00,1,,297
2013-8-31,89,82,76,77,73,66,89,76,62,29.96,29.91,29.86,10,9,0,22,5,29,0.12,3,Rain-Thunderstorm,284